Content
SEND FEEDBACK

Daily
Averages
Monthly
Summary
United States of America

CRESCENT CITY, CALIFORNIA


Home > North America > United States > California
Elevation: 56 feet     Latitude: 41 46N     Longitude: 124 14W

WEATHER
 
SELECT A DAY
Number of Records: 269,512;   Date Range: 1/1/95 - 7/29/14
 
SHARE

PRINT THIS DATA

[ ← Previous Day ]
WEATHER ALMANAC - JANUARY 3, 2013
[ Next Day → ]
[ °C ]   °F
Weather ElementAverageHighLow
Temperature49.8 °F55 °F (1:56 pm)37.9 °F (2:56 am)
Dewpoint39.5 °F46 °F (5:56 pm)30 °F (2:56 am)
Humidity68.2 %80 % (5:56 pm)54 % (6:56 am)
Barometer30.20 in30.32 in (10:56 pm)30.08 in (3:56 am)
Wind Speed10.3 mph20.7 mph (11:56 am)
Wind Gust25.3 mph (10:56 am)
Weather ElementAverage
Visibility10 mi
Wind DirectionSSE (141.5 °)

Weather ElementTotal
Precipitation---
Heating Degree Days18.6 (Base 65)
Averaged from 26 records on January 3, 2013
WEATHER CONDITIONS BREAKOUT
WIND DIRECTION BREAKOUT
WEATHER BY HOUR - JANUARY 3, 2013
[ °C ]   °F
Local TimeTemperatureDewpointHumidityBarometerVisibilityWind DirectionWind SpeedGust SpeedPrecipitationEventsConditions
1:56 AM39.0 °F30.9 °F73 %30.09 in10.0 miEast (100°)5.8 mphClear
2:56 AM37.9 °F30.0 °F73 %30.09 in10.0 miEast (100°)4.6 mphClear
3:56 AM39.0 °F30.9 °F73 %30.08 in10.0 miEast (100°)3.5 mphClear
5:56 AM45.0 °F33.1 °F63 %30.08 in10.0 miEast (90°)5.8 mphOvercast
6:56 AM46.0 °F30.0 °F54 %30.09 in10.0 miENE (70°)8.1 mphOvercast
7:56 AM50.0 °F34.0 °F54 %30.11 in10.0 miSSE (160°)15.0 mph0.00 inRainLight Rain
8:56 AM50.0 °F36.0 °F59 %30.15 in10.0 miSSE (150°)15.0 mph23.0 mph0.00 inOvercast
9:56 AM50.0 °F35.1 °F57 %30.19 in10.0 miSE (140°)13.8 mphOvercast
10:56 AM52.0 °F39.0 °F61 %30.20 in10.0 miSSE (150°)17.3 mph25.3 mphOvercast
11:56 AM51.1 °F39.0 °F63 %30.20 in10.0 miSSE (150°)20.7 mphOvercast
12:34 PM51.8 °F41.0 °F67 %30.19 in10.0 miSSE (160°)10.4 mph20.7 mphOvercast
12:56 PM52.0 °F39.0 °F61 %30.19 in10.0 miSSE (160°)12.7 mphOvercast
1:07 PM51.8 °F39.2 °F62 %30.18 in10.0 miSSE (150°)15.0 mphOvercast
1:30 PM53.6 °F41.0 °F62 %30.18 in10.0 miSSE (150°)15.0 mphOvercast
1:56 PM55.0 °F41.0 °F59 %30.19 in10.0 miSSE (150°)13.8 mphPartly Cloudy
2:56 PM54.0 °F43.0 °F66 %30.21 in10.0 miSSE (160°)13.8 mphOvercast
3:56 PM53.1 °F43.0 °F69 %30.23 in10.0 miSSE (160°)12.7 mphOvercast
4:56 PM52.0 °F44.1 °F74 %30.25 in10.0 miSSE (160°)11.5 mphOvercast
5:56 PM52.0 °F46.0 °F80 %30.26 in10.0 miSSE (150°)9.2 mphOvercast
6:56 PM52.0 °F45.0 °F77 %30.28 in10.0 miSSE (150°)9.2 mphOvercast
7:56 PM51.1 °F44.1 °F77 %30.29 in10.0 miSSE (150°)4.6 mphOvercast
8:56 PM51.1 °F44.1 °F77 %30.30 in10.0 miSSE (150°)6.9 mphOvercast
9:56 PM51.1 °F44.1 °F77 %30.31 in10.0 miSSE (150°)6.9 mphOvercast
10:56 PM51.1 °F45.0 °F80 %30.32 in10.0 miSE (140°)6.9 mphOvercast
11:05 PM51.8 °F44.6 °F76 %30.32 in10.0 miSSE (160°)4.6 mphOvercast
11:56 PM50.0 °F44.1 °F80 %30.32 in10.0 miSouth (170°)4.6 mphOvercast
Hourly data recorded from KCEC, located miles away from Crescent City, California







STORIES FROM OUR PARTNERS